Regional Weather Roundup
Issued by NWS

Home | Current Version | Previous Version | Graphics & Text | Print | Product List | Glossary Off
Versions: 1 2 3 4 5 6 7 8 9 10 11 12 13 14 15 16 17 18 19 20 21 22 23 24 25 26 27 28 29 30 31 32 33 34 35 36 37 38 39 40 41 42 43 44 45 46 47 48 49 50

000
ASUS43 KDMX 172101
RWRIA

WEATHER ROUNDUP FOR IOWA
NATIONAL WEATHER SERVICE DES MOINES IA
400 PM CDT TUE OCT 17 2017

NOTE: "FAIR" INDICATES FEW OR NO CLOUDS BELOW 12,000 FEET WITH NO
SIGNIFICANT WEATHER AND/OR OBSTRUCTIONS TO VISIBILITY.

* - THESE STATIONS ARE NOT NWS STATIONS...THUS NOT UNDER NWS
QUALITY CONTROL.  THEY ALSO DO NOT REPORT WEATHER SUCH
AS PRECIPITATION OR FOG.

IAZ001>003-012>014-020>022-031>034-043>046-172200-
   NORTHWEST IOWA

CITY           SKY/WX    TMP DP  RH WIND       PRES   REMARKS
CARROLL *      SUNNY     75  46  35 S13       30.01S
CHEROKEE *     SUNNY     73  44  35 SW7       29.98F
DENISON *      SUNNY     70  45  40 SW8G14    30.02F
LE MARS *      SUNNY     77  41  27 S8        29.97F HAZE
ORANGE CITY *  SUNNY     77  45  31 SW6       29.98S
SHELDON *      SUNNY     77  36  22 VRB5      29.96F
SIOUX CITY     SUNNY     76  47  35 S7        29.98F
SPENCER        SUNNY     77  39  25 SW9       29.97F
STORM LAKE *   SUNNY     73  41  31 SW8       29.99F
$$

IAZ055>058-069>071-079>083-090>094-172200-
   SOUTHWEST IOWA

CITY           SKY/WX    TMP DP  RH WIND       PRES   REMARKS
ATLANTIC *     SUNNY     72  45  37 SW15G23   30.02S
AUDUBON *      SUNNY     72  45  37 S12       30.03F
CLARINDA *     SUNNY     73  45  35 SW13G22   30.05F
COUNCIL BLFS * SUNNY     70  46  43 S9G16     30.02F
CRESTON *      SUNNY     72  43  35 SW16      30.06S
HARLAN  *      SUNNY     72  45  37 SW12      30.05F
LAMONI         SUNNY     71  45  39 S14       30.06F
RED OAK *      SUNNY     72  45  37 S12G20    30.03S
SHENANDOAH *   SUNNY     73  45  35 S12       30.03F
$$

IAZ047>049-059>061-072>074-084-172200-
   CENTRAL IOWA

CITY           SKY/WX    TMP DP  RH WIND       PRES   REMARKS
AMES           SUNNY     72  45  37 S16       30.02F
ANKENY *       SUNNY     72  45  37 SW10G17   30.05S
BOONE *        SUNNY     73  43  33 S13G18    30.01F
CHARITON *     SUNNY     72  45  37 S15       30.06F
DES MOINES     SUNNY     72  43  35 S17       30.04S
GRINNELL*      SUNNY     72  42  33 SW13G18   30.07F
KNOXVILLE *    SUNNY     72  43  35 S13G20    30.05S
MARSHALLTOWN   SUNNY     72  44  36 SW13G22   30.03F
NEWTON *       SUNNY     72  43  35 S16       30.06S
PELLA *        SUNNY     73  42  33 S10G16    30.07F
PERRY *          N/A     75  38  26 SW12      30.02F
$$

IAZ004>006-015-016-023>025-035-036-172200-
   NORTH CENTRAL IOWA

CITY           SKY/WX    TMP DP  RH WIND       PRES   REMARKS
ALGONA *       SUNNY     73  45  35 SW12      29.99F
CLARION *      SUNNY     73  45  35 SW16      30.00F
ESTHERVILLE    SUNNY     75  37  25 VRB5      29.97F
FORT DODGE *   SUNNY     72  47  40 SW9       30.01F
MASON CITY     SUNNY     71  44  37 SW13      30.01F
FOREST CITY *    N/A     70  45  40 SW9       30.00S
WEBSTER CITY * SUNNY     73  43  33 SW12      29.99F
IOWA FALLS *     N/A     73  43  34 S13       30.03F
$$

IAZ007>011-017>019-026>030-037>042-050>054-066-172200-
   NORTHEAST IOWA

CITY           SKY/WX    TMP DP  RH WIND       PRES   REMARKS
CEDAR RAPIDS   SUNNY     72  42  34 SW16G23   30.06F
CHARLES CITY * SUNNY     72  41  33 SW12G18   30.02S
CLINTON *      SUNNY     71  44  37 SW13      30.10F
DECORAH *      SUNNY     72  45  37 SW13G20   30.01S
DUBUQUE        SUNNY     70  44  39 SW18      30.06F
MONTICELLO *   SUNNY     73  43  33 SW14G21   30.06F
OELWEIN *      SUNNY     73  43  33 S20G25    30.04S
WATERLOO       SUNNY     73  40  30 S17       30.02F
$$

IAZ064-065-067-068-078-172200-
   EAST CENTRAL IOWA

CITY           SKY/WX    TMP DP  RH WIND       PRES   REMARKS
DAVENPORT      SUNNY     70  43  37 S14       30.12F
IOWA CITY      SUNNY     73  41  31 SW13      30.09F
MUSCATINE *    SUNNY     73  41  31 S17G24    30.10S
QUAD CITIES    SUNNY     71  40  32 SW14      30.10F
$$

IAZ062-063-075>077-085>089-095>099-172200-
   SOUTHEAST IOWA

CITY           SKY/WX    TMP DP  RH WIND       PRES   REMARKS
BURLINGTON     SUNNY     71  43  36 SW18      30.11F
FAIRFIELD *    SUNNY     72  43  35 S12G21    30.09S
FORT MADISON * SUNNY     72  45  37 S10       30.12F
KEOKUK *       SUNNY     72  41  33 S12       30.11F
OSKALOOSA *      N/A     72  42  34 SW18      30.07F
OTTUMWA        SUNNY     72  44  36 S17       30.08F
WASHINGTON *   SUNNY     72  43  35 S17       30.10S
$$

ABBREVIATIONS USED IN REMARKS
   TC - TEMPERATURES IN CELSIUS
  WCI - WIND CHILL INDEX
   HX - HEAT INDEX
  VSB - VISIBILITY
$$





USA.gov is the U.S. government's official web portal to all federal, state and local government web resources and services.